SCP
-0 -0 -0 -0 -0 -0 -0 -0 -0 -0 -0 -0 -0 -0 -0 -0 -0 -0 -0 -0 0 0 0 0 0 0 0 -0 0 0 0 0 -0 -0 -0 -0 -0 -0 -0 -0 -0 -0 -0
-0 -0 -0 -0 -0 -0 -0 -0 -0 -0 -0 -0 -0 -0 -0 -0 -0 -0 -0 -0 -0 0 0 0 0 0 0 0 -0 -0 0 0 0 -0 -0 -0 -0 -0 -0 -0 -0 -0 -0
0 0 -0 -0 -0 0 0 0 0 -0 -0 -0 -0 -0 -0 -0 -0 -0 -0 -0 -0 0 0 0 0 0 0 0 0 -0 -0 0 0 -0 -0 0 -0 -0 -0 -0 -0 -0 -0
0 0 -0 0 -0 0 0 0 0 0 0 0 0 0 0 0 0 0 -0 -0 -0 -0 -0 -0 0 0 0 0 0 0 -0 -0 -0 -0 0 -0 -0 -0 -0 -0 -0 -0 -0
0 0 -0 0 0 0 0 -0 0 0 0 0 0 0 0 0 0 0 0 -0 -0 -0 -0 -0 -0 -0 0 0 0 0 0 0 -0 -0 -0 0 -0 -0 -0 -0 -0 -0 -0
-0 0 0 -0 0 0 -0 0 0 0 0 0 0 0 0 0 0 0 0 0 0 0 0 0 0 0 0 0 0 0 0 0 0 -0 -0 -0 -0 0 0 -0 -0 -0 -0
0 0 0 0 0 -0 0 0 0 0 0 0 0 0 0 0 0 0 0 0 0 0 0 0 0 0 0 0 0 0 0 0 0 0 0 0 0 -0 -0 0 0 0 -0
0 0 0 0 0 0 0 0 0 0 0 0 0 0 0 0 0 0 0 0 0 0 0 0 0 0 0 0 0 0 0 0 0 1 1 0 0 0 0 -0 0 0 0
-0 -0 -0 0 0 0 0 0 0 0 0 0 0 0 0 0 0 0 0 0 0 0 0 0 0 0 0 0 0 0 0 0 0 0 1 1 1 1 0 0 0 -0 -0
-0 -0 0 0 0 0 0 0 0 0 0 0 0 0 0 0 0 0 0 0 0 0 0 0 0 0 0 0 0 0 0 0 0 0 0 0 0 1 1 1 0 0 0
-0 0 0 0 0 0 0 0 0 0 0 0 0 0 0 0 0 0 0 0 0 0 0 0 0 0 0 0 0 0 0 0 0 0 0 0 0 0 0 0 1 0 0
0 0 0 0 0 0 0 0 0 0 0 0 0 0 0 0 0 0 0 0 0 0 0 0 0 0 0 0 0 0 0 0 0 0 0 0 0 0 0 0 0 0 1
0 0 0 0 0 0 0 0 0 0 0 0 0 0 0 0 0 0 0 0 0 0 0 0 0 0 0 0 0 0 0 0 0 0 0 0 0 0 0 0 0 0 0
0 0 0 0 0 0 0 0 0 0 0 0 0 0 0 0 0 0 0 0 0 0 0 0 0 0 0 0 0 0 0 0 0 0 0 0 0 0 0 0 0 0 0
0 0 0 0 0 0 0 0 0 0 0 0 0 0 0 0 0 0 0 0 0 0 0 0 0 0 0 0 0 0 0 0 0 0 0 0 0 0 0 0 0 0 0
0 0 0 0 0 0 0 0 0 0 0 0 0 0 0 0 0 0 0 0 0 0 0 0 0 0 0 0 0 0 0 0 0 0 0 0 0 0 0 0 0 0 0
1 1 0 0 0 0 0 0 0 0 0 0 0 0 0 0 0 0 0 0 0 0 0 0 0 0 0 0 0 0 0 0 0 0 0 0 0 0 0 0 0 0 0
1 1 0 0 0 0 0 0 0 0 0 0 0 0 0 0 0 0 0 0 0 0 0 0 0 0 0 0 0 0 0 0 0 0 0 0 0 0 0 0 0 0 0
1 1 1 2 1 0 0 0 0 0 0 0 0 0 0 0 0 0 0 0 0 0 0 0 0 0 0 0 0 0 0 0 0 0 0 0 0 0 0 0 0 0 0
1 0 1 1 0 -0 0 0 0 0 0 0 0 0 0 0 0 0 0 0 0 0 0 0 0 0 0 0 0 0 0 0 0 0 0 0 0 0 0 0 0 0 -0
1 0 0 0 0 0 0 0 0 0 0 0 0 0 0 0 0 0 0 0 0 0 0 0 0 0 0 0 0 0 0 0 0 0 0 0 0 0 0 0 0 -0 -0
1 0 0 0 0 0 0 0 0 0 0 0 0 1 1 1 1 0 0 0 0 0 0 0 0 0 0 0 0 0 0 0 0 0 0 0 0 0 0 0 0 0 0
1 0 0 0 0 0 0 0 0 0 0 0 1 1 1 0 0 0 0 0 0 0 0 0 0 0 0 0 0 0 0 0 0 0 0 0 0 0 0 0 0 0 0
1 1 1 0 0 0 0 0 0 0 0 1 1 1 1 0 0 0 0 0 0 0 0 0 0 0 0 0 0 0 0 0 0 0 0 0 0 0 0 0 0 0 0
1 1 1 0 0 0 0 0 0 0 0 0 0 1 1 1 0 0 0 0 0 0 0 0 0 0 0 0 0 0 0 0 0 0 0 0 0 0 0 0 0 0 0
1 1 1 0 0 1 0 0 0 0 1 0 0 0 0 0 0 0 0 0 0 0 0 0 0 0 0 0 0 0 0 0 0 0 0 0 0 0 -0 0 0 0 0
Wind_Speed_500mb
19 12 14 12 11 11 12 12 14 15 17 17 18 18 17 19 20 14 13 26 16 14 13 13 11 16 16 16 20 18 15 14 17 18 17 20 22 22 23 21 21 20 18
24 15 16 15 13 12 12 11 15 16 18 19 18 18 20 19 19 18 14 15 19 17 17 17 17 15 19 21 17 22 20 20 17 17 21 23 26 23 22 23 23 22 20
25 19 18 16 14 17 18 16 18 17 21 22 22 22 21 20 16 14 10 11 14 20 17 19 17 18 19 19 24 19 19 23 22 25 22 24 25 27 25 23 24 24 22
21 20 20 17 21 21 20 19 16 19 21 22 23 21 20 17 16 11 7 7 10 11 20 20 22 19 19 21 20 24 26 23 25 26 28 29 27 28 29 26 24 24 24
26 21 21 18 22 20 25 18 16 21 19 20 18 19 17 13 10 6 5 7 5 4 9 22 24 22 20 22 22 24 25 28 30 31 31 30 32 35 34 32 31 28 28
21 24 21 21 22 19 17 19 19 18 17 16 17 14 11 4 6 4 6 7 9 8 3 1 9 13 22 24 26 27 26 28 33 31 34 36 36 34 36 37 36 35 32
26 27 19 20 18 16 17 17 18 17 11 14 10 8 7 2 7 5 4 7 9 8 8 8 4 3 11 16 26 29 31 34 33 35 34 35 39 42 42 40 38 39 39
25 20 21 16 22 15 17 13 11 7 10 10 6 8 6 5 4 2 3 9 8 9 9 10 8 5 2 5 17 19 30 34 34 37 39 40 41 43 45 47 47 44 42
21 20 21 15 17 16 12 6 7 10 6 7 4 3 6 3 8 5 2 5 11 9 10 11 8 7 5 5 3 12 20 26 32 38 40 41 45 45 48 49 50 50 50
20 19 17 16 21 10 12 7 7 6 5 7 8 6 4 6 8 5 5 7 6 6 8 8 8 8 7 5 11 15 18 22 28 34 39 41 44 48 50 51 53 55 55
23 22 21 21 16 9 13 11 7 7 8 8 9 7 7 8 7 7 15 9 14 9 9 7 8 7 7 6 7 16 20 22 22 25 31 38 45 48 51 55 57 56 56
24 27 24 23 16 14 13 10 12 10 9 11 9 9 8 8 8 11 16 17 18 15 16 15 14 12 14 12 15 20 21 22 24 26 29 31 35 40 46 53 57 61 64
25 28 29 26 15 15 15 13 13 12 8 7 10 10 12 13 15 15 16 19 22 23 21 17 17 17 16 15 18 26 25 23 23 25 26 30 33 36 39 44 52 60 65
26 24 25 25 20 20 18 17 14 11 13 11 12 13 14 16 19 21 23 25 27 26 23 20 13 23 19 22 24 30 24 38 28 28 30 33 35 35 36 38 45 53 59
26 28 26 26 21 22 21 21 18 18 17 16 18 18 20 19 21 23 26 27 28 34 32 27 30 26 26 28 30 32 31 35 41 40 37 36 37 38 39 41 42 47 55
32 29 30 28 23 22 24 25 22 22 23 19 18 20 23 21 23 24 24 27 28 36 45 34 33 33 34 35 33 37 34 42 42 46 43 41 42 43 44 45 48 50 53
34 33 30 31 25 26 27 31 28 25 24 23 23 23 23 24 20 21 23 27 30 30 40 46 39 37 36 38 39 40 41 43 42 45 53 55 48 51 51 52 48 52 58
39 29 23 29 32 30 30 35 32 27 26 27 26 25 22 20 22 24 26 27 31 31 39 45 46 42 40 39 40 43 45 44 45 46 58 58 53 54 56 55 55 53 54
42 39 54 56 42 48 41 39 38 34 30 29 29 27 26 25 27 26 31 31 32 35 40 44 44 42 46 42 44 49 42 49 43 44 52 55 63 66 62 61 64 75 70
61 63 73 66 70 55 56 46 40 37 35 32 32 31 31 31 30 29 32 32 33 35 42 44 46 47 45 51 50 48 49 50 53 51 55 62 63 63 64 57 72 76 77
82 81 79 89 74 64 58 51 46 40 39 36 33 33 34 33 34 35 35 38 45 43 46 49 53 53 56 50 50 52 54 54 55 55 59 61 64 61 60 67 71 76 87
98 98 92 82 70 66 57 54 50 40 38 35 32 33 38 39 48 45 43 48 51 53 55 52 54 58 58 51 48 51 54 57 64 52 63 68 61 68 68 70 84 98 109
98 96 89 73 55 73 60 53 48 46 38 35 37 39 42 46 45 50 50 49 50 54 56 57 49 47 50 45 48 54 52 57 65 67 66 70 57 71 75 87 102 105 111
85 90 76 69 51 65 64 63 52 51 51 45 49 46 49 46 48 51 49 40 48 48 40 43 43 43 42 49 60 61 64 64 65 57 53 70 64 77 91 97 110 113 101
66 63 61 54 45 51 56 54 56 53 50 59 52 61 67 71 49 50 45 48 46 42 37 43 50 49 52 56 59 57 48 49 53 55 52 63 72 85 100 124 112 96 75
47 50 48 43 43 45 42 48 51 55 60 55 54 59 55 43 42 44 44 44 35 32 32 37 40 38 43 43 47 50 49 47 54 61 58 64 77 89 101 105 101 95 76
Wind_Direction_500mb
236 237 252 253 249 285 290 306 310 304 313 325 319 323 323 316 307 299 283 289 260 252 242 242 246 238 233 232 232 229 233 240 232 229 230 231 235 249 249 240 236 237 250
256 258 277 273 279 276 281 288 292 305 308 314 323 323 326 321 305 298 282 284 281 257 249 245 253 247 247 243 236 235 236 242 246 243 241 242 240 247 253 252 248 246 249
246 255 267 267 276 270 288 300 303 319 324 319 322 330 332 325 319 304 298 270 284 301 267 244 249 259 255 244 246 242 238 237 244 241 249 247 244 247 255 257 256 251 248
258 264 263 263 259 273 270 280 306 305 312 315 321 329 325 331 319 328 327 297 279 252 293 273 257 262 257 256 253 252 252 250 244 249 248 249 252 250 254 256 255 258 257
253 250 259 258 270 276 277 283 305 307 306 310 313 320 324 331 357 360 11 26 344 351 242 282 285 263 264 259 257 255 256 257 255 250 251 253 251 252 254 258 257 255 259
244 255 257 261 276 284 300 296 292 291 297 303 311 312 310 351 24 30 24 13 15 36 43 283 270 278 274 261 260 261 261 255 257 259 256 254 254 255 255 253 257 256 254
252 262 267 279 270 283 275 284 295 300 297 305 328 306 290 325 23 65 48 26 15 13 18 21 55 175 288 295 252 253 255 257 253 254 259 255 254 255 256 255 256 256 255
245 252 254 264 266 272 292 282 283 276 299 299 321 304 276 221 216 317 61 34 37 32 31 20 30 304 87 278 272 257 252 254 256 253 252 257 255 253 253 255 255 255 255
248 251 261 244 264 287 269 258 285 275 273 280 291 275 273 315 317 241 307 343 39 31 46 34 48 8 335 344 13 286 261 258 257 258 258 256 254 254 254 252 254 253 253
240 239 236 246 282 238 220 250 272 218 216 260 286 279 245 249 317 281 264 286 348 357 12 11 355 345 339 28 329 296 287 273 263 259 260 262 261 259 257 255 255 253 253
221 224 223 253 267 218 237 232 247 233 255 234 256 258 275 292 297 290 302 295 306 295 298 320 326 312 317 315 302 301 297 296 293 281 268 264 263 262 260 259 257 257 256
223 219 225 248 248 211 225 244 237 238 221 241 235 241 252 259 271 282 291 293 301 295 286 282 298 303 291 291 307 298 296 293 296 294 289 284 276 270 267 264 261 259 256
224 228 234 247 235 227 228 232 239 216 239 235 247 241 259 266 276 279 281 287 291 296 292 291 293 293 293 284 280 289 293 284 287 286 289 288 290 288 281 274 269 263 259
224 225 238 248 237 227 228 232 219 223 246 253 250 269 264 275 281 283 287 295 297 298 296 283 274 298 294 296 283 296 308 293 298 295 284 284 288 291 293 289 279 272 268
223 220 235 249 237 230 232 227 211 231 232 244 250 258 269 278 281 283 288 293 295 300 297 295 297 291 295 300 290 292 292 289 291 290 288 286 288 287 290 291 290 282 274
225 225 233 241 236 242 246 239 233 241 233 236 245 247 258 271 277 281 285 289 289 292 295 296 295 293 287 286 293 293 293 295 295 289 287 282 289 288 287 294 287 290 284
244 236 249 252 244 263 248 244 238 233 239 245 241 245 251 258 267 276 284 286 288 288 286 294 292 296 291 291 292 293 294 294 293 295 293 292 293 292 292 291 289 295 289
225 215 252 274 268 266 245 244 243 238 242 243 242 243 247 258 264 278 287 285 285 282 283 282 290 295 293 292 290 289 296 291 286 284 283 293 298 295 294 292 295 303 295
217 191 225 245 267 271 253 244 245 245 241 242 241 242 249 255 264 272 270 278 289 290 289 287 287 293 295 297 294 293 290 292 291 295 299 300 297 295 296 301 301 304 307
209 211 240 252 260 260 260 249 245 244 241 239 244 247 249 255 263 269 275 278 288 291 297 289 286 293 295 294 288 287 292 294 291 289 287 289 294 293 296 298 296 298 301
225 234 241 259 273 243 245 249 239 238 242 242 245 255 261 265 271 275 270 278 281 290 291 291 291 295 296 290 291 294 292 292 289 291 290 289 290 285 283 287 288 291 291
236 236 245 248 250 230 237 235 240 240 242 246 253 258 261 276 285 282 281 283 283 287 289 289 289 291 288 289 292 292 288 291 291 289 289 289 288 287 287 289 290 291 291
229 230 236 241 253 226 234 242 247 248 246 251 254 269 276 283 285 282 284 283 283 288 290 291 285 284 287 294 293 292 293 290 290 291 289 289 291 291 294 292 290 293 285
236 230 235 244 253 230 233 242 246 247 250 251 254 260 277 282 289 278 272 275 285 289 286 282 283 283 282 287 292 293 293 292 293 293 293 288 297 295 299 297 296 296 293
230 225 234 254 239 229 236 247 250 242 245 251 263 279 280 283 284 277 277 286 288 290 290 293 293 295 296 293 293 293 292 291 288 291 295 294 298 300 303 310 307 307 304
219 220 237 245 225 228 244 244 243 241 248 261 284 281 283 272 271 271 282 285 285 285 280 286 293 298 303 303 311 308 307 298 301 301 303 300 303 315 314 310 311 305 305
Wind_Speed_850mb
19 12 14 12 11 11 12 12 14 15 17 17 18 18 17 19 20 14 13 26 16 14 13 13 11 16 16 16 20 18 15 14 17 18 17 20 22 22 23 21 21 20 18
24 15 16 15 13 12 12 11 15 16 18 19 18 18 20 19 19 18 14 15 19 17 17 17 17 15 19 21 17 22 20 20 17 17 21 23 26 23 22 23 23 22 20
25 19 18 16 14 17 18 16 18 17 21 22 22 22 21 20 16 14 10 11 14 20 17 19 17 18 19 19 24 19 19 23 22 25 22 24 25 27 25 23 24 24 22
21 20 20 17 21 21 20 19 16 19 21 22 23 21 20 17 16 11 7 7 10 11 20 20 22 19 19 21 20 24 26 23 25 26 28 29 27 28 29 26 24 24 24
26 21 21 18 22 20 25 18 16 21 19 20 18 19 17 13 10 6 5 7 5 4 9 22 24 22 20 22 22 24 25 28 30 31 31 30 32 35 34 32 31 28 28
21 24 21 21 22 19 17 19 19 18 17 16 17 14 11 4 6 4 6 7 9 8 3 1 9 13 22 24 26 27 26 28 33 31 34 36 36 34 36 37 36 35 32
26 27 19 20 18 16 17 17 18 17 11 14 10 8 7 2 7 5 4 7 9 8 8 8 4 3 11 16 26 29 31 34 33 35 34 35 39 42 42 40 38 39 39
25 20 21 16 22 15 17 13 11 7 10 10 6 8 6 5 4 2 3 9 8 9 9 10 8 5 2 5 17 19 30 34 34 37 39 40 41 43 45 47 47 44 42
21 20 21 15 17 16 12 6 7 10 6 7 4 3 6 3 8 5 2 5 11 9 10 11 8 7 5 5 3 12 20 26 32 38 40 41 45 45 48 49 50 50 50
20 19 17 16 21 10 12 7 7 6 5 7 8 6 4 6 8 5 5 7 6 6 8 8 8 8 7 5 11 15 18 22 28 34 39 41 44 48 50 51 53 55 55
23 22 21 21 16 9 13 11 7 7 8 8 9 7 7 8 7 7 15 9 14 9 9 7 8 7 7 6 7 16 20 22 22 25 31 38 45 48 51 55 57 56 56
24 27 24 23 16 14 13 10 12 10 9 11 9 9 8 8 8 11 16 17 18 15 16 15 14 12 14 12 15 20 21 22 24 26 29 31 35 40 46 53 57 61 64
25 28 29 26 15 15 15 13 13 12 8 7 10 10 12 13 15 15 16 19 22 23 21 17 17 17 16 15 18 26 25 23 23 25 26 30 33 36 39 44 52 60 65
26 24 25 25 20 20 18 17 14 11 13 11 12 13 14 16 19 21 23 25 27 26 23 20 13 23 19 22 24 30 24 38 28 28 30 33 35 35 36 38 45 53 59
26 28 26 26 21 22 21 21 18 18 17 16 18 18 20 19 21 23 26 27 28 34 32 27 30 26 26 28 30 32 31 35 41 40 37 36 37 38 39 41 42 47 55
32 29 30 28 23 22 24 25 22 22 23 19 18 20 23 21 23 24 24 27 28 36 45 34 33 33 34 35 33 37 34 42 42 46 43 41 42 43 44 45 48 50 53
34 33 30 31 25 26 27 31 28 25 24 23 23 23 23 24 20 21 23 27 30 30 40 46 39 37 36 38 39 40 41 43 42 45 53 55 48 51 51 52 48 52 58
39 29 23 29 32 30 30 35 32 27 26 27 26 25 22 20 22 24 26 27 31 31 39 45 46 42 40 39 40 43 45 44 45 46 58 58 53 54 56 55 55 53 54
42 39 54 56 42 48 41 39 38 34 30 29 29 27 26 25 27 26 31 31 32 35 40 44 44 42 46 42 44 49 42 49 43 44 52 55 63 66 62 61 64 75 70
61 63 73 66 70 55 56 46 40 37 35 32 32 31 31 31 30 29 32 32 33 35 42 44 46 47 45 51 50 48 49 50 53 51 55 62 63 63 64 57 72 76 77
82 81 79 89 74 64 58 51 46 40 39 36 33 33 34 33 34 35 35 38 45 43 46 49 53 53 56 50 50 52 54 54 55 55 59 61 64 61 60 67 71 76 87
98 98 92 82 70 66 57 54 50 40 38 35 32 33 38 39 48 45 43 48 51 53 55 52 54 58 58 51 48 51 54 57 64 52 63 68 61 68 68 70 84 98 109
98 96 89 73 55 73 60 53 48 46 38 35 37 39 42 46 45 50 50 49 50 54 56 57 49 47 50 45 48 54 52 57 65 67 66 70 57 71 75 87 102 105 111
85 90 76 69 51 65 64 63 52 51 51 45 49 46 49 46 48 51 49 40 48 48 40 43 43 43 42 49 60 61 64 64 65 57 53 70 64 77 91 97 110 113 101
66 63 61 54 45 51 56 54 56 53 50 59 52 61 67 71 49 50 45 48 46 42 37 43 50 49 52 56 59 57 48 49 53 55 52 63 72 85 100 124 112 96 75
47 50 48 43 43 45 42 48 51 55 60 55 54 59 55 43 42 44 44 44 35 32 32 37 40 38 43 43 47 50 49 47 54 61 58 64 77 89 101 105 101 95 76
Wind_Direction_850mb
236 237 252 253 249 285 290 306 310 304 313 325 319 323 323 316 307 299 283 289 260 252 242 242 246 238 233 232 232 229 233 240 232 229 230 231 235 249 249 240 236 237 250
256 258 277 273 279 276 281 288 292 305 308 314 323 323 326 321 305 298 282 284 281 257 249 245 253 247 247 243 236 235 236 242 246 243 241 242 240 247 253 252 248 246 249
246 255 267 267 276 270 288 300 303 319 324 319 322 330 332 325 319 304 298 270 284 301 267 244 249 259 255 244 246 242 238 237 244 241 249 247 244 247 255 257 256 251 248
258 264 263 263 259 273 270 280 306 305 312 315 321 329 325 331 319 328 327 297 279 252 293 273 257 262 257 256 253 252 252 250 244 249 248 249 252 250 254 256 255 258 257
253 250 259 258 270 276 277 283 305 307 306 310 313 320 324 331 357 360 11 26 344 351 242 282 285 263 264 259 257 255 256 257 255 250 251 253 251 252 254 258 257 255 259
244 255 257 261 276 284 300 296 292 291 297 303 311 312 310 351 24 30 24 13 15 36 43 283 270 278 274 261 260 261 261 255 257 259 256 254 254 255 255 253 257 256 254
252 262 267 279 270 283 275 284 295 300 297 305 328 306 290 325 23 65 48 26 15 13 18 21 55 175 288 295 252 253 255 257 253 254 259 255 254 255 256 255 256 256 255
245 252 254 264 266 272 292 282 283 276 299 299 321 304 276 221 216 317 61 34 37 32 31 20 30 304 87 278 272 257 252 254 256 253 252 257 255 253 253 255 255 255 255
248 251 261 244 264 287 269 258 285 275 273 280 291 275 273 315 317 241 307 343 39 31 46 34 48 8 335 344 13 286 261 258 257 258 258 256 254 254 254 252 254 253 253
240 239 236 246 282 238 220 250 272 218 216 260 286 279 245 249 317 281 264 286 348 357 12 11 355 345 339 28 329 296 287 273 263 259 260 262 261 259 257 255 255 253 253
221 224 223 253 267 218 237 232 247 233 255 234 256 258 275 292 297 290 302 295 306 295 298 320 326 312 317 315 302 301 297 296 293 281 268 264 263 262 260 259 257 257 256
223 219 225 248 248 211 225 244 237 238 221 241 235 241 252 259 271 282 291 293 301 295 286 282 298 303 291 291 307 298 296 293 296 294 289 284 276 270 267 264 261 259 256
224 228 234 247 235 227 228 232 239 216 239 235 247 241 259 266 276 279 281 287 291 296 292 291 293 293 293 284 280 289 293 284 287 286 289 288 290 288 281 274 269 263 259
224 225 238 248 237 227 228 232 219 223 246 253 250 269 264 275 281 283 287 295 297 298 296 283 274 298 294 296 283 296 308 293 298 295 284 284 288 291 293 289 279 272 268
223 220 235 249 237 230 232 227 211 231 232 244 250 258 269 278 281 283 288 293 295 300 297 295 297 291 295 300 290 292 292 289 291 290 288 286 288 287 290 291 290 282 274
225 225 233 241 236 242 246 239 233 241 233 236 245 247 258 271 277 281 285 289 289 292 295 296 295 293 287 286 293 293 293 295 295 289 287 282 289 288 287 294 287 290 284
244 236 249 252 244 263 248 244 238 233 239 245 241 245 251 258 267 276 284 286 288 288 286 294 292 296 291 291 292 293 294 294 293 295 293 292 293 292 292 291 289 295 289
225 215 252 274 268 266 245 244 243 238 242 243 242 243 247 258 264 278 287 285 285 282 283 282 290 295 293 292 290 289 296 291 286 284 283 293 298 295 294 292 295 303 295
217 191 225 245 267 271 253 244 245 245 241 242 241 242 249 255 264 272 270 278 289 290 289 287 287 293 295 297 294 293 290 292 291 295 299 300 297 295 296 301 301 304 307
209 211 240 252 260 260 260 249 245 244 241 239 244 247 249 255 263 269 275 278 288 291 297 289 286 293 295 294 288 287 292 294 291 289 287 289 294 293 296 298 296 298 301
225 234 241 259 273 243 245 249 239 238 242 242 245 255 261 265 271 275 270 278 281 290 291 291 291 295 296 290 291 294 292 292 289 291 290 289 290 285 283 287 288 291 291
236 236 245 248 250 230 237 235 240 240 242 246 253 258 261 276 285 282 281 283 283 287 289 289 289 291 288 289 292 292 288 291 291 289 289 289 288 287 287 289 290 291 291
229 230 236 241 253 226 234 242 247 248 246 251 254 269 276 283 285 282 284 283 283 288 290 291 285 284 287 294 293 292 293 290 290 291 289 289 291 291 294 292 290 293 285
236 230 235 244 253 230 233 242 246 247 250 251 254 260 277 282 289 278 272 275 285 289 286 282 283 283 282 287 292 293 293 292 293 293 293 288 297 295 299 297 296 296 293
230 225 234 254 239 229 236 247 250 242 245 251 263 279 280 283 284 277 277 286 288 290 290 293 293 295 296 293 293 293 292 291 288 291 295 294 298 300 303 310 307 307 304
219 220 237 245 225 228 244 244 243 241 248 261 284 281 283 272 271 271 282 285 285 285 280 286 293 298 303 303 311 308 307 298 301 301 303 300 303 315 314 310 311 305 305